Regional Weather Roundup
Issued by NWS

Home | Current Version | Previous Version | Text Only | Print | Product List | Glossary On
Versions: 1 2 3 4 5 6 7 8 9 10 11 12 13 14 15 16 17 18 19 20 21 22 23 24 25 26 27 28 29 30 31 32 33 34 35 36 37 38 39 40 41 42 43 44 45 46 47 48 49 50
000
ASUS43 KMPX 062301
RWRMN
WEATHER ROUNDUP FOR MINNESOTA
NATIONAL WEATHER SERVICE TWIN CITIES/CHANHASSEN MN
500 PM CST SAT FEB 06 2016


NOTE: "FAIR" INDICATES FEW OR NO CLOUDS BELOW 12,000 FEET WITH NO
SIGNIFICANT WEATHER AND/OR OBSTRUCTIONS TO VISIBILITY. N/A MEANS
CURRENT SKY AND/OR WEATHER CONDITIONS ARE NOT AVAILABLE.

MNZ060>063-068>070-070000-
   Twin Cities Metro

CITY           SKY/WX    TMP DP  RH WIND       PRES   REMARKS
TWIN CITIES    CLOUDY    35  26  69 S13       29.90F WCI  26
ST PAUL        CLOUDY    34  27  75 S15       29.92F WCI  24
CRYSTAL        CLOUDY    35  26  69 S13       29.86F WCI  26
BLAINE         CLOUDY    36  28  75 S15G22    29.87F
LAKEVILLE      CLOUDY    32  28  86 S13G18    29.90F WCI  22
EDEN PRAIRIE   CLOUDY    35  27  72 S15       29.88F WCI  25
SOUTH ST PAUL  MOCLDY    34  27  75 S13G20    29.91F WCI  25
LAKE ELMO      FAIR      34  28  80 S14G20    29.91F WCI  24
$$
MNZ001>005-007-008-013>017-022>024-027-028-070000-
   Northwest Minnesota

CITY           SKY/WX    TMP DP  RH WIND       PRES   REMARKS
BEMIDJI        CLOUDY    35  26  69 S8        29.64F WCI  28
HALLOCK        CLEAR     34  30  86 S14       29.55F WCI  24
ROSEAU         CLOUDY    34  28  80 S14       29.58F WCI  24
WARROAD        CLOUDY    30  27  86 SE10      29.60F WCI  21
THIEF RVR FALL CLOUDY    34  28  80 S12       29.61F WCI  25
CROOKSTON      CLOUDY    36  30  80 S16       29.61F
FOSSTON        MOCLDY    34  28  80 S13       29.63F WCI  25
DETROIT LAKES  CLOUDY    36  32  87 S10       29.66F
MOORHEAD       CLOUDY    36  32  87 S6        29.67F
PARK RAPIDS    FLURRIES  36  27  69 S10       29.67F
MAHNOMEN       CLOUDY    34  30  84 S14       29.64F WCI  25
$$
MNZ006-009>011-018-025>026-070000-
   North Central Minnesota

CITY           SKY/WX    TMP DP  RH WIND       PRES   REMARKS
BAUDETTE       CLOUDY    31  28  89 SE12      29.62F WCI  22
FLAG ISLAND    LGT SNOW  28  27  93 SE14      29.61F VSB 1   WCI  17
INTL FALLS     LGT SNOW  31  27  85 SE8       29.67F VSB 1   WCI  23
WASKISH        CLOUDY    34  27  75 SE5       29.65S WCI  30
LONGVILLE      CLOUDY    36  25  64 S9        29.69S
GRAND RAPIDS   CLOUDY    34  25  69 S18       29.70F WCI  23
CRANE LAKE     CLOUDY    30  25  80 SE3       29.73F
ORR            LGT SNOW  30  27  86 S7        29.67F WCI  23
COOK           LGT SNOW  32  28  86 S7        29.71F WCI  26
WALKER         CLOUDY    36  25  64 SW9G16    29.67F
$$
MNZ012-019>021-037-070000-
   Northeast Minnesota

CITY           SKY/WX    TMP DP  RH WIND       PRES   REMARKS
DULUTH         CLOUDY    33  24  69 S15       29.76F WCI  23
ELY            CLOUDY    30  23  74 S8        29.74F WCI  23
HIBBING        FLURRIES  32  25  75 SE9       29.70F WCI  24
EVELETH        MIX PCPN  32  28  86 S7        29.74F WCI  26
DULUTH HARBOR  CLOUDY    37  27  65 S17       29.82F
TWO HARBORS    CLOUDY    36  28  75 S7        29.79F
SILVER BAY     MIX PCPN  30  25  80 CALM      29.79F
GRAND MARAIS     N/A     30  23  75 SE3       29.87F
G MARAIS ARPRT CLOUDY    21  18  86 SE6       29.81S WCI  14
$$
MNZ029>031-032-039>041-046>048-054>057-064-070000-
   West Central Minnesota

CITY           SKY/WX    TMP DP  RH WIND       PRES   REMARKS
FERGUS FALLS   DRIZZLE   36  30  80 SW9       29.74R
WHEATON        CLOUDY    37  34  87 S13       29.76R
MORRIS         DRIZZLE   36  30  80 SW9       29.76S
ALEXANDRIA     CLOUDY    36  28  73 SW16      29.74F
ELBOW LAKE     DRIZZLE   34  31  90 S15       29.71F WCI  24
WADENA         CLOUDY    36  27  69 S8        29.70F
GLENWOOD       DRIZZLE   36  30  80 S14       29.77F
APPLETON       DRIZZLE   37  30  75 SW10      29.77F
BENSON         MIX PCPN  36  30  80 SW5       29.78F
ORTONVILLE     CLOUDY    36  30  80 W3        29.79R
MADISON        LGT RAIN  37  30  75 SW13      29.79F
WILLMAR        FAIR      37  30  75 S3        29.82F
$$
MNZ033>034-036-042>043-049>051-058-059-070000-
   Central Minnesota

CITY           SKY/WX    TMP DP  RH WIND       PRES   REMARKS
ST CLOUD       CLOUDY    35  26  69 S15       29.80F WCI  25
SAUK CENTRE    CLOUDY    36  28  74 S14       29.77F
PAYNESVILLE    CLOUDY    36  28  72 S8G16     29.80F
AITKIN         CLOUDY    37  25  60 S13G18    29.72F
PINE RIVER     CLOUDY    37  27  65 S9G17     29.74F
BRAINERD       CLOUDY    36  26  67 S13       29.73F
STAPLES        CLOUDY    36  27  69 S7        29.71F
LONG PRAIRIE   CLOUDY    36  28  75 S10G17    29.76F
LITTLE FALLS   CLOUDY    36  27  69 S10G16    29.77F
LITCHFIELD     CLOUDY    36  28  75 S7        29.82F
BUFFALO        PTCLDY    34  27  75 S10G18    29.85F WCI  26
MAPLE LAKE     CLOUDY    35  29  79 S12G21    29.83F WCI  27
$$
MNZ037-044-045-052-053-070000-
   East Central Minnesota

CITY           SKY/WX    TMP DP  RH WIND       PRES   REMARKS
PRINCETON      CLOUDY    37  27  65 S13       29.81F
MORA           PTCLDY    34  27  75 S10       29.81F WCI  26
CAMBRIDGE      CLOUDY    37  27  65 S12G18    29.81F
RUSH CITY      CLOUDY    34  28  77 S10       29.84F WCI  26
MOOSE LAKE     CLOUDY    34  27  75 S8G16     29.75F WCI  27
HINCKLEY       CLOUDY    34  28  80 S13       29.81F WCI  25
CLOQUET        CLOUDY    34  25  69 S10       29.76F WCI  26
MCGREGOR       CLOUDY    34  27  75 S13       29.74F WCI  25
$$
MNZ071>073-080-081-089-090-097-098-070000-
   Southwest Minnesota

CITY           SKY/WX    TMP DP  RH WIND       PRES   REMARKS
MONTEVIDEO     LGT RAIN  37  28  70 W6        29.81S
GRANITE FALLS  CLOUDY    37  31  78 SW18      29.81F
CANBY          CLOUDY    39  31  72 SW13      29.81F
MARSHALL       LGT RAIN  35  27  72 SW18      29.82F WCI  24
REDWOOD FALLS  CLOUDY    35  27  72 SW16G24   29.83F WCI  25
OLIVIA         CLOUDY    36  28  75 SW16      29.82F
PIPESTONE        N/A     36  21  55 SW13      29.85F
WINDOM         CLOUDY    36  27  69 S16G26    29.87F
WORTHINGTON    CLOUDY    34  25  69 S21G28    29.87F WCI  22
JACKSON        CLOUDY    36  27  69 S18       29.90F
TRACY          DRIZZLE   35  29  78 SW17      29.85R WCI  24
SLAYTON        CLOUDY    32  29  89 SW24      29.84F WCI  19
$$
MNZ065>067-074>077-082>085-091>093-070000-
   South Central Minnesota

CITY           SKY/WX    TMP DP  RH WIND       PRES   REMARKS
MANKATO        CLOUDY    34  27  75 S16       29.91F WCI  23
NEW ULM        CLOUDY    36  27  69 S14       29.87F
ST JAMES       CLOUDY    36  30  80 S18       29.89F
FAIRMONT       MOCLDY    34  27  75 S18       29.90F WCI  23
GLENCOE        CLOUDY    35  31  85 S12G18    29.85F WCI  27
FARIBAULT      CLOUDY    34  28  80 S14       29.93F WCI  24
OWATONNA       PTCLDY    34  27  75 S17       29.94F WCI  23
WASECA         CLOUDY    32  28  86 S20       29.94F WCI  20
ALBERT LEA     CLOUDY    30  28  93 S14       29.96F WCI  20
$$
MNZ078>079-086>088-094>096-070000-
   Southeast Minnesota

CITY           SKY/WX    TMP DP  RH WIND       PRES   REMARKS
ROCHESTER      CLOUDY    28  24  85 S18       29.98F FOG     WCI  15
RED WING       CLOUDY    34  27  75 S9        29.96F WCI  26
STANTON        CLOUDY    33  28  79 S14G20    29.92F WCI  24
DODGE CENTER   CLOUDY    28  27  93 S15       29.95F WCI  17
WINONA         CLEAR     32  27  80 S3        30.04F
AUSTIN         MOCLDY    28  27  93 S16       29.98F FOG     WCI  17
PRESTON        CLOUDY    27  24  87 S17       30.01F WCI  14
$$
ABBREVIATIONS USED IN REMARKS
   TC - TEMPERATURES IN CELSIUS
  WCI - WIND CHILL INDEX
   HX - HEAT INDEX
  VSB - VISIBILITY
$$



USA.gov is the U.S. government's official web portal to all federal, state and local government web resources and services.